Weather History for FAGG - April, 2015

Change the Weather History Date:

Monday, April 6, 2015

  Actual Average Record
Temperature  
Mean Temperature 61 °F -  
Max Temperature 69 °F 70 °F 91 °F (2012)
Min Temperature 53 °F 52 °F 48 °F (1997)
Degree Days  
Heating Degree Days 4    
Growing Degree Days 11 (Base 50)    
Moisture  
Dew Point 55 °F    
Average Humidity 81    
Maximum Humidity 100    
Minimum Humidity 53    
Precipitation  
Precipitation 0.00 in - - ()
Sea Level Pressure  
Sea Level Pressure 30.15 in    
Wind  
Wind Speed 8 mph ()    
Max Wind Speed 15 mph    
Max Gust Speed -    
Visibility 7.5 miles    
Events      
Averages and records for this station are not official NWS values.
T = Trace of Precipitation, MM = Missing Value Source: Averaged Metar Reports

Daily Weather History Graph

Daily Weather History Graph

Search for Another Location

Airport or City:

Trip Planner

Search our weather history database for the weather conditions in past years. The results will help you decide how hot, cold, wet, or windy it might be!

Date:

Astronomy

Apr. 06, 2015 Rise Set
Actual Time 6:46 AM SAST 6:19 PM SAST
Civil Twilight 6:21 AM SAST 6:44 PM SAST
Nautical Twilight 5:52 AM SAST 7:13 PM SAST
Astronomical Twilight 5:23 AM SAST 7:42 PM SAST
Moon 7:36 PM SAST (4/6) 8:20 AM SAST (4/6)
Length of Visible Light 12h 23m
Length of Day
11h 33m
Waning Gibbous, 97% of the Moon is Illuminated
Apr 6
Waning Gibbous
Apr 12
Last Quarter
Apr 18
New
Apr 26
First Quarter
May 4
Full

Hourly Weather History & Observations

Time (SAST) Temp. Dew Point Humidity Pressure Visibility Wind Dir Wind Speed Gust Speed Precip Events Conditions
12:00 AM 57.2 °F 55.4 °F 94% 30.21 in 6.2 mi East 6.9 mph - N/A   Scattered Clouds
1:00 AM 57.2 °F 53.6 °F 88% 30.21 in - East 10.4 mph - N/A   Clear
2:00 AM 57 °F 55 °F 92% 30.20 in 6 mi East 10.4 mph - -  
2:00 AM 57.2 °F 55.4 °F 94% 30.18 in - ESE 9.2 mph - N/A   Clear
3:00 AM 55.4 °F 55.4 °F 100% 30.18 in 5.6 mi Variable 2.3 mph - N/A   Unknown
4:00 AM 55.4 °F 53.6 °F 94% 30.18 in - East 8.1 mph - N/A   Clear
5:00 AM 56 °F 53 °F 87% 30.17 in 12 mi East 6.9 mph - -   Scattered Clouds
5:00 AM 55.4 °F 53.6 °F 94% 30.15 in 6.2 mi East 6.9 mph - N/A   Partly Cloudy
6:00 AM 53.6 °F 53.6 °F 100% 30.12 in 6.2 mi WNW 6.9 mph - N/A   Overcast
7:00 AM 53.6 °F 51.8 °F 94% 30.15 in 6.2 mi ENE 4.6 mph - N/A   Partly Cloudy
8:00 AM 55 °F 53 °F 91% 30.18 in 12 mi 3.5 mph - -   Scattered Clouds
8:00 AM 53.6 °F 51.8 °F 94% 30.18 in 6.2 mi NE 3.5 mph - N/A   Partly Cloudy
9:00 AM 62.6 °F 55.4 °F 77% 30.18 in 6.2 mi ESE 5.8 mph - N/A   Partly Cloudy
10:00 AM 66.2 °F 57.2 °F 73% 30.18 in 6.2 mi ESE 6.9 mph - N/A   Partly Cloudy
11:00 AM 68 °F 55 °F 53% 30.17 in 12 mi ESE 10.4 mph - -   Scattered Clouds
11:00 AM 68.0 °F 55.4 °F 64% 30.15 in 6.2 mi ESE 11.5 mph - N/A   Partly Cloudy
12:00 PM 68.0 °F 55.4 °F 64% 30.15 in 6.2 mi SE 10.4 mph - N/A   Partly Cloudy
1:00 PM 68.0 °F 55.4 °F 64% 30.15 in 6.2 mi East 10.4 mph - N/A   Partly Cloudy
2:00 PM 69 °F 56 °F 53% 30.12 in 12 mi ESE 10.4 mph - -   Scattered Clouds
2:00 PM 68.0 °F 53.6 °F 60% 30.12 in 6.2 mi ESE 9.2 mph - N/A   Partly Cloudy
3:00 PM 68.0 °F 55.4 °F 64% 30.12 in 6.2 mi ESE 13.8 mph - N/A   Partly Cloudy
4:00 PM 68.0 °F 57.2 °F 68% 30.09 in 6.2 mi ESE 13.8 mph - N/A   Partly Cloudy
5:00 PM 66 °F 57 °F 64% 30.10 in 12 mi East 15.0 mph - -   Scattered Clouds
5:00 PM 66.2 °F 57.2 °F 73% 30.09 in 6.2 mi ESE 13.8 mph - N/A   Partly Cloudy
6:00 PM 62.6 °F 57.2 °F 82% 30.09 in 6.2 mi East 13.8 mph - N/A   Partly Cloudy
7:00 PM 62.6 °F 57.2 °F 82% 30.12 in 6.2 mi East 11.5 mph - N/A   Partly Cloudy
8:00 PM 61 °F 57 °F 81% 30.12 in 12 mi East 10.4 mph - -  
8:00 PM 60.8 °F 57.2 °F 88% 30.12 in - East 9.2 mph - N/A   Clear
9:00 PM 59.0 °F 55.4 °F 88% 30.12 in 6.2 mi ESE 6.9 mph - N/A   Scattered Clouds
10:00 PM 57.2 °F 55.4 °F 94% 30.12 in 6.2 mi NNE 4.6 mph - N/A   Partly Cloudy
11:00 PM 57.2 °F 55.4 °F 94% 30.12 in - North 3.5 mph - N/A   Clear